Location: Newark
(25.6108°S, 54.5803°W)
Time: 05:36:37
(UTC+00:00)

deb Explorer IX - Pass Details

Date: 01 November 2020
Orbit: 538 x 1104 km, 38.8° (Epoch: 27 November)

Event Time Altitude Azimuth Distance (km) Brightness Sun altitude
Rises 16:06:12 0° 336° (NNW) 3,871 ? 75.0°
Reaches altitude 10° 16:09:35 10° 349° (N) 2,874 ? 74.4°
Maximum altitude 16:15:01 24° 40° (NE) 1,932 ? 73.5°
Drops below altitude 10° 16:20:01 10° 91° (E) 2,634 ? 72.6°
Sets 16:22:57 0° 105° (ESE) 3,482 ? 72.0°
